EW0767 Weather Reports


time (UTC)temp
F
wind
direction
speed
knots
gust
knots
rain 1hr
in
rain 24hr
in
rain mn
in
humidity
%
barometer
mb
20260510175020 70 215 0.0 0.9 0.00 0.28 0.00 61 1011.2
20260510174337 70 120 0.0 1.7 0.00 0.28 0.00 67 1011.2
20260510173141 69 212 0.0 0.0 0.00 0.28 0.00 67 1011.2
20260510172020 69 228 0.0 0.9 0.00 0.28 0.00 68 1011.2
20260510170136 69 65 0.0 0.9 0.00 0.28 0.00 70 1011.5
20260510164333 69 226 0.9 0.9 0.00 0.29 0.00 67 1011.5
20260510163138 68 120 0.0 0.9 0.00 0.29 0.00 68 1011.7
20260510162023 69 221 0.9 1.7 0.00 0.29 0.00 66 1011.7
20260510161334 69 236 0.9 1.7 0.00 0.29 0.00 71 1011.7
20260510160134 67 215 0.0 0.9 0.00 0.29 0.00 75 1011.6
20260510155023 67 224 0.9 1.7 0.00 0.30 0.00 73 1011.8
20260510154339 65 232 0.9 2.6 0.00 0.30 0.00 78 1011.9
20260510153141 65 253 0.9 3.5 0.00 0.30 0.00 77 1012.0
20260510151334 63 200 0.0 0.9 0.00 0.30 0.00 81 1012.1
20260510150134 62 215 0.0 0.9 0.00 0.30 0.00 83 1012.0
20260510144337 60 218 0.9 1.7 0.00 0.30 0.00 87 1011.9
20260510143137 59 231 0.0 0.0 0.00 0.30 0.00 89 1011.9
20260510142019 59 219 0.0 0.9 0.00 0.30 0.00 89 1012.0
20260510141336 58 172 0.0 0.0 0.00 0.30 0.00 91 1012.1
20260510140136 57 184 0.0 0.0 0.00 0.30 0.00 92 1012.0
20260510135022 56 232 0.0 0.9 0.00 0.30 0.00 93 1011.9
20260510134339 55 225 0.0 0.9 0.00 0.30 0.00 95 1011.9
20260510133134 55 218 0.0 0.9 0.00 0.30 0.00 95 1011.9
20260510132019 54 56 0.0 0.0 0.00 0.30 0.00 98 1011.9
20260510131336 54 212 0.0 0.0 0.00 0.30 0.00 99 1011.9
20260510130139 54 212 0.0 0.0 0.00 0.30 0.00 99 1012.1
20260510125017 53 212 0.0 0.0 0.00 0.30 0.00 99 1011.9
20260510124022 53 212 0.0 0.0 0.00 0.30 0.00 100 1011.7
20260510123137 53 212 0.0 0.0 0.00 0.30 0.00 100 1011.7
20260510122019 52 212 0.0 0.0 0.00 0.30 0.00 100 1011.7
20260510121336 52 212 0.0 0.0 0.00 0.30 0.00 100 1011.7
20260510120135 51 212 0.0 0.0 0.00 0.30 0.00 100 1011.7
20260510114338 51 212 0.0 0.0 0.00 0.30 0.00 100 1011.5
20260510113137 50 212 0.0 0.0 0.00 0.30 0.00 100 1011.5
20260510112019 50 212 0.0 0.0 0.00 0.32 0.00 100 1011.2
20260510110134 50 212 0.0 0.0 0.00 0.32 0.00 100 1011.4
20260510105022 50 212 0.0 0.0 0.00 0.32 0.00 100 1011.0
20260510104333 50 212 0.0 0.0 0.00 0.32 0.00 100 1011.2
20260510101338 50 212 0.0 0.0 0.00 0.33 0.00 100 1010.8
20260510100137 49 212 0.0 0.0 0.00 0.33 0.00 100 1010.8
20260510095017 49 210 0.0 0.9 0.00 0.33 0.00 100 1010.4
20260510094335 49 217 0.0 0.9 0.00 0.34 0.00 100 1010.4
20260510091336 49 218 0.0 0.0 0.00 0.34 0.00 100 1010.6
20260510085020 49 218 0.0 0.0 0.00 0.36 0.00 100 1010.7
20260510084337 49 218 0.0 0.9 0.00 0.36 0.00 100 1010.8
20260510083132 49 242 0.0 0.9 0.00 0.37 0.00 100 1011.0
20260510082623 49 225 0.0 0.0 0.00 0.38 0.00 100 1010.9
20260510081334 49 226 0.0 0.0 0.00 0.39 0.00 99 1010.8
20260510080134 49 225 0.0 0.0 0.00 0.39 0.00 99 1010.8
20260510075021 49 226 0.0 0.9 0.00 0.39 0.00 99 1010.9
20260510071336 49 226 0.0 0.0 0.00 0.39 0.00 99 1010.6
20260510064338 50 225 0.0 0.0 0.00 0.39 0.00 99 1010.8
20260510063135 50 316 0.0 0.0 0.00 0.39 0.00 99 1010.8
20260510062023 50 316 0.0 0.0 0.00 0.39 0.00 99 1010.7
20260510061340 50 316 0.0 0.0 0.00 0.39 0.00 99 1010.6
20260510060136 50 316 0.0 0.0 0.00 0.39 0.00 99 1010.4
20260510055018 50 316 0.0 0.0 0.00 0.39 0.00 99 1010.5
20260510054334 50 316 0.0 0.0 0.00 0.39 0.00 99 1010.5
20260510053022 50 316 0.0 0.0 0.00 0.39 0.00 99 1010.5
20260510052018 50 316 0.0 0.0 0.00 0.39 0.00 99 1010.6
20260510051335 50 316 0.0 0.0 0.00 0.39 0.00 99 1010.6
20260510050135 50 316 0.0 0.0 0.00 0.39 0.00 99 1010.7
20260510045022 50 316 0.0 0.0 0.00 0.39 0.00 99 1010.7
20260510044333 50 316 0.0 0.0 0.00 0.39 0.00 99 1010.6
20260510043131 50 316 0.0 0.0 0.00 0.39 0.00 99 1010.6
20260510041335 50 316 0.0 0.0 0.00 0.39 0.00 99 1010.6
20260510040133 51 316 0.0 0.0 0.00 0.39 0.00 99 1010.5
20260510035020 51 316 0.0 0.0 0.00 0.43 0.39 99 1010.7
20260510034337 51 316 0.0 0.0 0.00 0.43 0.39 99 1010.7
20260510033139 51 316 0.0 0.0 0.00 0.43 0.39 99 1010.7
20260510032019 51 316 0.0 0.0 0.00 0.43 0.39 99 1010.8
20260510030148 51 316 0.0 0.0 0.00 0.43 0.39 99 1010.9
20260510025021 51 316 0.0 0.0 0.00 0.43 0.39 99 1010.8
20260510024339 51 316 0.0 0.0 0.00 0.43 0.39 99 1010.7
20260510021341 51 43 0.0 0.0 0.00 0.43 0.39 99 1010.8
20260510020130 51 43 0.0 0.0 0.00 0.43 0.39 99 1010.7
20260510014335 51 43 0.0 0.0 0.00 0.43 0.39 99 1010.8
20260510012020 51 43 0.0 0.0 0.00 0.43 0.39 99 1010.8
20260510011337 51 15 0.0 0.0 0.00 0.43 0.39 99 1010.7
20260510010136 51 15 0.0 0.0 0.00 0.43 0.39 99 1010.4
20260510005021 51 15 0.0 0.0 0.00 0.43 0.39 99 1010.2
20260510004332 51 15 0.0 0.0 0.00 0.43 0.39 99 1010.1
20260510003138 51 15 0.0 0.0 0.00 0.43 0.39 99 1009.9
20260510002024 51 15 0.0 0.0 0.00 0.43 0.39 99 1010.1
20260510001334 51 15 0.0 0.0 0.00 0.43 0.39 99 1010.0
20260510000133 51 354 0.0 0.0 0.00 0.43 0.39 98 1009.8
20260509235021 52 356 0.0 0.0 0.00 0.43 0.39 99 1009.7
20260509234332 52 356 0.0 0.0 0.00 0.43 0.39 99 1009.8
20260509233131 51 293 0.0 0.9 0.00 0.43 0.39 98 1009.8
20260509232019 51 222 0.0 0.0 0.00 0.43 0.39 98 1009.8
20260509231336 52 204 0.0 0.0 0.00 0.43 0.39 98 1009.9
20260509230135 52 231 0.0 0.0 0.00 0.43 0.39 98 1010.0
20260509225016 52 228 0.0 0.0 0.00 0.43 0.39 98 1010.1
20260509224334 52 235 0.0 0.0 0.00 0.43 0.39 98 1010.1
20260509223133 52 200 0.0 0.0 0.00 0.43 0.39 98 1010.1
20260509222020 52 215 0.0 0.0 0.00 0.43 0.39 98 1010.4
20260509221331 52 215 0.0 0.0 0.00 0.43 0.39 98 1010.4
20260509220131 52 210 0.0 0.0 0.00 0.42 0.38 98 1010.4
20260509213132 52 29 0.0 0.0 0.00 0.36 0.32 97 1010.6
20260509212020 52 28 0.0 0.0 0.00 0.35 0.31 98 1010.5
20260509211330 53 29 0.0 0.0 0.00 0.34 0.30 98 1010.4
20260509205016 52 29 0.0 0.0 0.00 0.33 0.29 97 1010.5
20260509203134 53 223 0.0 0.0 0.00 0.33 0.29 97 1010.8
20260509202018 53 222 0.0 0.9 0.00 0.32 0.28 96 1010.8
20260509201335 53 233 0.0 0.0 0.00 0.30 0.26 96 1011.0
20260509200132 54 101 0.0 0.9 0.00 0.28 0.24 96 1010.9
20260509195020 54 166 0.0 0.0 0.00 0.23 0.19 95 1010.9
20260509194331 54 166 0.0 0.0 0.00 0.21 0.17 95 1011.0
20260509193136 54 166 0.0 0.0 0.00 0.19 0.15 95 1011.1
20260509192018 54 166 0.0 0.0 0.00 0.17 0.13 95 1011.0
20260509191335 54 166 0.0 0.0 0.00 0.16 0.12 95 1011.0
20260509190135 54 166 0.0 0.0 0.00 0.15 0.11 95 1010.8
20260509185017 54 166 0.0 0.0 0.00 0.15 0.11 95 1010.8
20260509184334 54 166 0.0 0.0 0.00 0.15 0.11 95 1010.8
20260509183134 54 215 0.0 0.0 0.00 0.15 0.11 94 1010.9
20260509182022 54 215 0.0 0.0 0.00 0.15 0.11 94 1010.8
20260509181332 54 216 0.0 0.0 0.00 0.15 0.11 93 1010.8
20260509180130 54 215 0.0 0.0 0.00 0.15 0.11 93 1010.8